Meteo orario Park Narodowy Abel Tasman

Oggi, 28 Febbraio, Domenica

Tempo Temperatura Precipitazioni Vento Pressione Umidità
00:00 +14°C° 0 mm 2 m/s 731 mm Hg 84%
01:00 +14°C° 0 mm 2 m/s 731 mm Hg 83%
02:00 +14°C° 0 mm 2 m/s 731 mm Hg 81%
03:00 +14°C° 0 mm 2 m/s 731 mm Hg 80%
04:00 +14°C° 0 mm 1 m/s 730 mm Hg 80%
05:00 +14°C° 0 mm 1 m/s 730 mm Hg 81%
06:00 +14°C° 0 mm 1 m/s 730 mm Hg 80%
07:00 +16°C° 0 mm 1 m/s 730 mm Hg 75%
08:00 +18°C° 0 mm 1 m/s 731 mm Hg 69%
09:00 +20°C° 0 mm 1 m/s 731 mm Hg 64%
10:00 +20°C° 0 mm 1 m/s 731 mm Hg 63%
11:00 +21°C° 0 mm 1 m/s 731 mm Hg 62%
12:00 +21°C° 0 mm 1 m/s 731 mm Hg 61%
13:00 +21°C° 0 mm 1 m/s 730 mm Hg 63%
14:00 +20°C° 0 mm 2 m/s 730 mm Hg 66%
15:00 +20°C° 0 mm 2 m/s 730 mm Hg 68%
16:00 +20°C° 0 mm 2 m/s 730 mm Hg 69%
17:00 +19°C° 0 mm 2 m/s 729 mm Hg 69%
18:00 +20°C° 0 mm 1 m/s 729 mm Hg 70%
19:00 +19°C° 0 mm 1 m/s 729 mm Hg 75%
20:00 +18°C° 0 mm 1 m/s 730 mm Hg 80%
21:00 +16°C° 0 mm 1 m/s 730 mm Hg 85%
22:00 +15°C° 0 mm 1 m/s 730 mm Hg 86%
23:00 +15°C° 0 mm 1 m/s 729 mm Hg 86%

Domani, 1 Marzo, Lunedi

Tempo Temperatura Precipitazioni Vento Pressione Umidità
00:00 +14°C° 0 mm 1 m/s 729 mm Hg 87%
01:00 +15°C° 0 mm 1 m/s 729 mm Hg 87%
02:00 +15°C° 0 mm 1 m/s 729 mm Hg 86%
03:00 +15°C° 0 mm 1 m/s 728 mm Hg 86%
04:00 +15°C° 0.5 mm 1 m/s 728 mm Hg 88%
05:00 +15°C° 0.5 mm 1 m/s 728 mm Hg 91%
06:00 +15°C° 0.5 mm 1 m/s 728 mm Hg 94%
07:00 +15°C° 1.3 mm 1 m/s 728 mm Hg 95%
08:00 +15°C° 1.3 mm 2 m/s 728 mm Hg 96%
09:00 +15°C° 1.3 mm 2 m/s 728 mm Hg 98%
10:00 +15°C° 1.6 mm 2 m/s 728 mm Hg 97%
11:00 +14°C° 1.6 mm 3 m/s 728 mm Hg 97%
12:00 +16°C° 1.6 mm 3 m/s 728 mm Hg 96%
13:00 +14°C° 2.3 mm 3 m/s 727 mm Hg 96%
14:00 +14°C° 2.3 mm 3 m/s 727 mm Hg 96%
15:00 +14°C° 2.3 mm 3 m/s 727 mm Hg 97%
16:00 +14°C° 1.2 mm 3 m/s 726 mm Hg 97%
17:00 +14°C° 1.2 mm 3 m/s 726 mm Hg 97%
18:00 +15°C° 1.2 mm 2 m/s 726 mm Hg 97%
19:00 +15°C° 0.2 mm 2 m/s 726 mm Hg 97%
20:00 +15°C° 0.2 mm 2 m/s 726 mm Hg 97%
21:00 +15°C° 0.2 mm 2 m/s 726 mm Hg 96%
22:00 +15°C° 0.4 mm 2 m/s 726 mm Hg 96%
23:00 +14°C° 0.4 mm 3 m/s 726 mm Hg 96%

Dopodomani, 2 Marzo, Martedi

Tempo Temperatura Precipitazioni Vento Pressione Umidità
00:00 +14°C° 0.4 mm 3 m/s 726 mm Hg 96%
01:00 +14°C° 0.6 mm 3 m/s 726 mm Hg 96%
02:00 +14°C° 0.6 mm 3 m/s 725 mm Hg 96%
03:00 +14°C° 0.6 mm 3 m/s 725 mm Hg 96%
04:00 +15°C° 0.5 mm 2 m/s 725 mm Hg 96%
05:00 +15°C° 0.5 mm 2 m/s 725 mm Hg 96%
06:00 +15°C° 0.5 mm 2 m/s 724 mm Hg 95%
07:00 +16°C° 0.2 mm 2 m/s 725 mm Hg 94%
08:00 +16°C° 0.2 mm 2 m/s 725 mm Hg 93%
09:00 +17°C° 0.2 mm 2 m/s 725 mm Hg 92%
10:00 +18°C° 0.3 mm 3 m/s 725 mm Hg 84%
11:00 +19°C° 0.3 mm 3 m/s 724 mm Hg 76%
12:00 +20°C° 0.3 mm 4 m/s 724 mm Hg 68%
13:00 +21°C° 0.1 mm 5 m/s 724 mm Hg 67%
14:00 +21°C° 0.1 mm 5 m/s 724 mm Hg 65%
15:00 +21°C° 0.1 mm 6 m/s 723 mm Hg 63%
16:00 +21°C° 0 mm 6 m/s 723 mm Hg 67%
17:00 +20°C° 0 mm 6 m/s 723 mm Hg 71%
18:00 +20°C° 0 mm 6 m/s 723 mm Hg 75%
19:00 +17°C° 0 mm 5 m/s 723 mm Hg 81%
20:00 +15°C° 0 mm 5 m/s 723 mm Hg 87%
21:00 +14°C° 0 mm 4 m/s 724 mm Hg 94%
22:00 +13°C° 0 mm 4 m/s 724 mm Hg 93%
23:00 +13°C° 0 mm 3 m/s 723 mm Hg 91%

3 Marzo, Mercoledi

Tempo Temperatura Precipitazioni Vento Pressione Umidità
00:00 +12°C° 0 mm 3 m/s 723 mm Hg 90%
01:00 +12°C° 0 mm 3 m/s 723 mm Hg 90%
02:00 +12°C° 0 mm 3 m/s 723 mm Hg 89%
03:00 +13°C° 0 mm 2 m/s 723 mm Hg 89%
04:00 +12°C° 0 mm 3 m/s 722 mm Hg 88%
05:00 +12°C° 0 mm 3 m/s 722 mm Hg 88%
06:00 +11°C° 0 mm 3 m/s 722 mm Hg 88%
07:00 +12°C° 0.1 mm 3 m/s 722 mm Hg 88%
08:00 +13°C° 0.1 mm 3 m/s 723 mm Hg 87%
09:00 +14°C° 0.1 mm 3 m/s 723 mm Hg 87%
10:00 +15°C° 0.4 mm 4 m/s 723 mm Hg 86%
11:00 +17°C° 0.4 mm 4 m/s 723 mm Hg 86%
12:00 +17°C° 0.4 mm 5 m/s 723 mm Hg 85%
13:00 +19°C° 0 mm 5 m/s 723 mm Hg 72%
14:00 +20°C° 0 mm 6 m/s 723 mm Hg 59%
15:00 +21°C° 0 mm 6 m/s 722 mm Hg 45%
16:00 +21°C° 0 mm 6 m/s 722 mm Hg 50%
17:00 +20°C° 0 mm 6 m/s 722 mm Hg 55%
18:00 +19°C° 0 mm 6 m/s 722 mm Hg 60%
19:00 +16°C° 0 mm 5 m/s 722 mm Hg 67%
20:00 +14°C° 0 mm 4 m/s 723 mm Hg 75%
21:00 +12°C° 0 mm 3 m/s 723 mm Hg 83%
22:00 +12°C° 0 mm 3 m/s 723 mm Hg 82%
23:00 +12°C° 0 mm 3 m/s 723 mm Hg 81%

4 Marzo, Giovedi

Tempo Temperatura Precipitazioni Vento Pressione Umidità
00:00 +12°C° 0 mm 2 m/s 723 mm Hg 81%
01:00 +12°C° 0 mm 2 m/s 722 mm Hg 79%
02:00 +12°C° 0 mm 2 m/s 722 mm Hg 78%
03:00 +12°C° 0 mm 2 m/s 722 mm Hg 76%
04:00 +10°C° 0 mm 2 m/s 722 mm Hg 76%
05:00 +10°C° 0 mm 2 m/s 722 mm Hg 75%
06:00 +10°C° 0 mm 2 m/s 721 mm Hg 74%
07:00 +13°C° 0 mm 2 m/s 721 mm Hg 67%
08:00 +15°C° 0 mm 2 m/s 721 mm Hg 60%
09:00 +17°C° 0 mm 2 m/s 721 mm Hg 53%
10:00 +18°C° 0 mm 2 m/s 721 mm Hg 51%
11:00 +20°C° 0 mm 1 m/s 721 mm Hg 49%
12:00 +21°C° 0 mm 1 m/s 720 mm Hg 47%
13:00 +20°C° 0.3 mm 1 m/s 720 mm Hg 57%
14:00 +18°C° 0.3 mm 2 m/s 719 mm Hg 67%
15:00 +17°C° 0.3 mm 2 m/s 719 mm Hg 77%
16:00 +16°C° 0.2 mm 2 m/s 719 mm Hg 79%
17:00 +16°C° 0.2 mm 1 m/s 719 mm Hg 81%
18:00 +16°C° 0.2 mm 1 m/s 718 mm Hg 83%
19:00 +15°C° 0 mm 1 m/s 718 mm Hg 86%
20:00 +13°C° 0 mm 2 m/s 719 mm Hg 88%
21:00 +10°C° 0 mm 2 m/s 719 mm Hg 91%
22:00 +9°C° 0 mm 3 m/s 719 mm Hg 89%
23:00 +7°C° 0 mm 4 m/s 719 mm Hg 88%

5 Marzo, Venerdi

Tempo Temperatura Precipitazioni Vento Pressione Umidità
00:00 +7°C° 0 mm 4 m/s 719 mm Hg 86%
01:00 +6°C° 0 mm 4 m/s 718 mm Hg 86%
02:00 +6°C° 0 mm 4 m/s 718 mm Hg 86%
03:00 +6°C° 0 mm 4 m/s 718 mm Hg 86%
04:00 +6°C° 0 mm 4 m/s 718 mm Hg 86%
05:00 +6°C° 0 mm 4 m/s 718 mm Hg 87%
06:00 +6°C° 0 mm 4 m/s 718 mm Hg 87%
07:00 +8°C° 0 mm 4 m/s 718 mm Hg 84%
08:00 +10°C° 0 mm 4 m/s 718 mm Hg 80%
09:00 +12°C° 0 mm 4 m/s 718 mm Hg 77%
10:00 +12°C° 0 mm 5 m/s 718 mm Hg 79%
11:00 +13°C° 0 mm 6 m/s 717 mm Hg 82%
12:00 +12°C° 0 mm 7 m/s 717 mm Hg 84%
13:00 +14°C° 0.5 mm 7 m/s 717 mm Hg 86%
14:00 +13°C° 0.5 mm 8 m/s 717 mm Hg 88%
15:00 +13°C° 0.5 mm 8 m/s 716 mm Hg 90%
16:00 +13°C° 1.5 mm 8 m/s 716 mm Hg 92%
17:00 +12°C° 1.5 mm 7 m/s 716 mm Hg 94%
18:00 +13°C° 1.5 mm 6 m/s 716 mm Hg 96%
19:00 +13°C° 2.4 mm 5 m/s 716 mm Hg 97%
20:00 +12°C° 2.4 mm 4 m/s 716 mm Hg 97%
21:00 +12°C° 2.4 mm 3 m/s 716 mm Hg 98%
22:00 +12°C° 0.9 mm 3 m/s 716 mm Hg 97%
23:00 +12°C° 0.9 mm 3 m/s 716 mm Hg 96%
Mostrare altro

Abbiamo bisogno del tuo consenso

Meteoprog e i nostri fornitori di servizi possono memorizzare e accedere a dati personali come cookie, identificatori di dispositivi o altre tecnologie simili sul tuo dispositivo e possono elaborare tali dati per personalizzare i contenuti e gli annunci, nonché fornire funzionalità dei social media e analizzarne il traffico.

  • Archiviare e/o accedere alle informazioni sul tuo dispositivo

    Cookie, identificatori di dispositivi o altre informazioni possono essere memorizzati o resi accessibili sul tuo dispositivo per le finalità sopra indicate.

  • Annunci e contenuti personalizzati, misurazione di annunci e contenuti, approfondimenti sul pubblico e sviluppo di prodotti

    Gli annunci e i contenuti possono essere personalizzati in base a un profilo. È possibile aggiungere più dati per personalizzare meglio annunci e contenuti. È possibile misurare il rendimento degli annunci e dei contenuti. È possibile ricavare informazioni sul pubblico che ha visto gli annunci e i contenuti. Tali dati possono essere utilizzati per sviluppare o migliorare l'esperienza, i sistemi e il software dell'utente.

Cliccando su “Accetto”, acconsenti all'uso di cookie, identificatori di dispositivo, web beacon o altre tecnologie simili. Puoi modificare le impostazioni nel browser del tuo dispositivo.

Per determinati scopi, è possibile fare affidamento su interessi legali, piuttosto che sul consenso. Puoi approfondire questo argomento consultando la nostra Informativa sulla privacy e sui cookie.